Location: Brusselsch Zeekanaal
(50.8667°N, 4.3667°E)
Time: 06:17:16
(UTC+00:00)

Meteor 2-16 Rocket - Pass Details

Date: 08 November 2025
Orbit: 942 x 955 km, 82.6° (Epoch: 11 December)

Event Time Altitude Azimuth Distance (km) Brightness Sun altitude
Rises 05:14:04 0° 200° (SSW) 3,600 7.4 -14.7°
Reaches altitude 10° 05:16:34 10° 203° (SSW) 2,661 6.6 -14.3°
Maximum altitude 05:22:36 62° 284° (WNW) 1,060 4.4 -13.4°
Drops below altitude 10° 05:28:42 10° 5° (N) 2,688 6.8 -12.5°
Sets 05:31:15 0° 9° (N) 3,639 7.5 -12.1°
